| time (UTC) | temp F | wind direction | speed MPH | gust MPH | rain 1hr in | rain 24hr in | rain mn in | humidity % | barometer mb |
| 20260503210036 | 52 | 225 | 13.0 | 22.0 | 0.00 | 0.00 | 0.00 | 49 | 1008.9 |
| 20260503204533 | 51 | 223 | 11.0 | 21.0 | 0.00 | 0.00 | 0.00 | 53 | 1009.1 |
| 20260503203041 | 51 | 243 | 13.0 | 22.0 | 0.00 | 0.00 | 0.00 | 51 | 1009.3 |
| 20260503201534 | 51 | 243 | 11.0 | 22.0 | 0.00 | 0.00 | 0.00 | 52 | 1009.3 |
| 20260503200028 | 51 | 239 | 14.0 | 25.0 | 0.00 | 0.00 | 0.00 | 49 | 1009.5 |
| 20260503194526 | 51 | 226 | 13.0 | 23.0 | 0.00 | 0.00 | 0.00 | 48 | 1009.8 |
| 20260503193025 | 51 | 228 | 9.0 | 23.0 | 0.00 | 0.00 | 0.00 | 47 | 1009.9 |
| 20260503191522 | 51 | 251 | 9.0 | 19.0 | 0.00 | 0.00 | 0.00 | 47 | 1010.2 |
| 20260503190021 | 51 | 266 | 12.0 | 23.0 | 0.00 | 0.00 | 0.00 | 45 | 1010.3 |
| 20260503184522 | 50 | 216 | 12.0 | 22.0 | 0.00 | 0.00 | 0.00 | 43 | 1010.5 |
| 20260503183020 | 50 | 231 | 13.0 | 23.0 | 0.00 | 0.00 | 0.00 | 43 | 1010.6 |
| 20260503181517 | 51 | 212 | 13.0 | 23.0 | 0.00 | 0.00 | 0.00 | 45 | 1010.7 |
| 20260503180024 | 51 | 257 | 11.0 | 18.0 | 0.00 | 0.00 | 0.00 | 47 | 1010.7 |
| 20260503174516 | 51 | 292 | 8.0 | 15.0 | 0.00 | 0.00 | 0.00 | 45 | 1010.8 |
| 20260503173023 | 50 | 225 | 10.0 | 18.0 | 0.00 | 0.00 | 0.00 | 43 | 1010.9 |
| 20260503171509 | 50 | 233 | 7.0 | 18.0 | 0.00 | 0.00 | 0.00 | 48 | 1011.0 |
| 20260503081517 | 40 | 316 | 2.0 | 7.0 | 0.00 | 0.00 | 0.00 | 72 | 1012.7 |
| 20260503071503 | 41 | 271 | 3.0 | 8.0 | 0.00 | 0.00 | 0.00 | 73 | 1012.6 |
| 20260503060109 | 41 | 266 | 3.0 | 8.0 | 0.00 | 0.00 | 0.00 | 75 | 1012.9 |
| 20260503054603 | 41 | 256 | 2.0 | 4.0 | 0.00 | 0.00 | 0.00 | 77 | 1012.8 |
| 20260503053053 | 40 | 226 | 3.0 | 7.0 | 0.00 | 0.00 | 0.00 | 81 | 1012.9 |
| 20260503051551 | 40 | 255 | 3.0 | 6.0 | 0.00 | 0.00 | 0.00 | 83 | 1013.0 |
| 20260503050049 | 40 | 245 | 4.0 | 6.0 | 0.00 | 0.00 | 0.00 | 84 | 1013.1 |
| 20260503044548 | 40 | 254 | 4.0 | 6.0 | 0.00 | 0.00 | 0.00 | 84 | 1013.2 |
| 20260503043053 | 40 | 224 | 3.0 | 5.0 | 0.00 | 0.00 | 0.00 | 84 | 1013.3 |
| 20260503041544 | 40 | 238 | 3.0 | 5.0 | 0.00 | 0.00 | 0.00 | 84 | 1013.3 |
| 20260503040042 | 40 | 244 | 2.0 | 5.0 | 0.00 | 0.00 | 0.00 | 84 | 1013.3 |
| 20260503034541 | 40 | 239 | 3.0 | 5.0 | 0.00 | 0.00 | 0.00 | 84 | 1013.4 |
| 20260503033053 | 40 | 234 | 2.0 | 4.0 | 0.00 | 0.00 | 0.00 | 83 | 1013.5 |
| 20260503031541 | 40 | 221 | 1.0 | 3.0 | 0.00 | 0.00 | 0.00 | 83 | 1013.5 |
| 20260503030039 | 40 | 242 | 1.0 | 4.0 | 0.00 | 0.00 | 0.00 | 83 | 1013.6 |
| 20260503024540 | 40 | 252 | 2.0 | 4.0 | 0.00 | 0.00 | 0.00 | 82 | 1013.7 |
| 20260503023049 | 41 | 238 | 3.0 | 5.0 | 0.00 | 0.00 | 0.00 | 81 | 1013.9 |
| 20260503021538 | 41 | 236 | 4.0 | 6.0 | 0.00 | 0.00 | 0.00 | 80 | 1013.9 |
| 20260503020037 | 41 | 245 | 3.0 | 7.0 | 0.00 | 0.00 | 0.00 | 79 | 1014.0 |
| 20260503014536 | 41 | 239 | 3.0 | 8.0 | 0.00 | 0.00 | 0.00 | 80 | 1014.0 |
| 20260503013034 | 41 | 227 | 4.0 | 8.0 | 0.00 | 0.00 | 0.00 | 80 | 1013.9 |
| 20260503011541 | 41 | 245 | 3.0 | 7.0 | 0.00 | 0.00 | 0.00 | 80 | 1013.8 |
| 20260503010037 | 41 | 226 | 4.0 | 8.0 | 0.00 | 0.00 | 0.00 | 80 | 1013.7 |
| 20260503004532 | 42 | 216 | 3.0 | 8.0 | 0.00 | 0.00 | 0.00 | 80 | 1013.6 |
| 20260503003031 | 42 | 250 | 6.0 | 12.0 | 0.00 | 0.00 | 0.00 | 81 | 1013.4 |
| 20260503001531 | 42 | 208 | 5.0 | 9.0 | 0.00 | 0.00 | 0.00 | 81 | 1013.4 |
| 20260503000030 | 42 | 224 | 5.0 | 12.0 | 0.00 | 0.00 | 0.00 | 80 | 1013.2 |
| 20260502234530 | 42 | 157 | 6.0 | 11.0 | 0.00 | 0.00 | 0.00 | 80 | 1013.3 |
| 20260502233029 | 42 | 224 | 5.0 | 9.0 | 0.00 | 0.00 | 0.00 | 81 | 1013.3 |
| 20260502231528 | 42 | 226 | 4.0 | 12.0 | 0.00 | 0.00 | 0.00 | 80 | 1013.3 |
| 20260502230028 | 42 | 236 | 6.0 | 12.0 | 0.00 | 0.00 | 0.00 | 80 | 1013.2 |
| 20260502224527 | 42 | 218 | 8.0 | 13.0 | 0.00 | 0.00 | 0.00 | 79 | 1013.1 |
| 20260502223027 | 43 | 238 | 6.0 | 10.0 | 0.00 | 0.00 | 0.00 | 78 | 1013.3 |
| 20260502221524 | 42 | 229 | 7.0 | 11.0 | 0.00 | 0.00 | 0.00 | 79 | 1013.3 |
| 20260502220025 | 43 | 221 | 7.0 | 15.0 | 0.00 | 0.00 | 0.00 | 78 | 1013.3 |
| 20260502214524 | 43 | 223 | 10.0 | 15.0 | 0.00 | 0.00 | 0.00 | 79 | 1013.3 |
| 20260502213028 | 43 | 236 | 8.0 | 14.0 | 0.00 | 0.00 | 0.00 | 79 | 1013.3 |
| 20260502211522 | 43 | 226 | 8.0 | 17.0 | 0.00 | 0.00 | 0.00 | 79 | 1013.3 |